World > North America > United States > Utah

Midvale, Utah Regional Weather

Lat: 40.61N, Lon: 111.9W
Wx Zone: UTZ003Web Search

Our weather pages are very print friendly and they make great conversation starters.

Feedback


°F Click to change Midvale hourly weather to Imperial units.Click to change Midvale hourly weather to Metric units. °C
Midvale Weather Map
UTC Time: 4/12/2021, 11:55
Your Time:

Midvale, UT Regional Weather

Expires:202104121200;;432719
ASUS45 KSLC 121110
RWRUT 

UTAH REGIONAL WEATHER ROUNDUP
NATIONAL WEATHER SERVICE SALT LAKE CITY UT
500 AM MDT MON APR 12 2021


UTZ001>011-023>025-121200-

NORTHERN UTAH
  
CITY           SKY/WX    TMP DP  RH WIND       PRES   REMARKS
BRIGHAM CITY   CLEAR     30  15  53 CALM      30.02S                  
HILL AFB       CLEAR     31  16  54 S3        29.99S                  
LOGAN          CLEAR     27  14  58 CALM      30.04R                  
OGDEN          CLEAR     32  18  56 NW6       29.99S WCI  26          
SALT LAKE CITY CLEAR     34  16  47 N6        30.01R WCI  29          
TOOELE VALLEY  CLEAR     27  19  74 S5        30.03R WCI  21          
WENDOVER       CLEAR     37   7  28 W5        30.05R WCI  33          
HEBER CITY       N/A     21   9  58 CALM      29.97R                  
WEST JORDAN    CLEAR     32  16  50 NW5       30.01S WCI  27          

$$


SKY/WX - Weather  TMP - Temperature  DP - Dew Point  RH - Relative Humidity
WIND - Wind Direction/Speed PRES - Barometric Pressure VSB - Visibility
WCI - Wind Chill Index E13G22 Wind - East Wind 13 mph/Gusts of 22 mph